• Processing (Info)

  • MPEC 2010-M29 : 2010 MG1

    The following Minor Planet Electronic Circular may be linked-to from your own Web pages, but must not otherwise be redistributed electronically.

    A form allowing access to any MPEC is at the bottom of this page.


    Read MPEC 2010-M28 Read MPEC 2010-M30


    M.P.E.C. 2010-M29                                Issued 2010 June 20, 18:02 UT
    
         The Minor Planet Electronic Circulars contain information on unusual
             minor planets and routine data on comets.  They are published
       on behalf of Commission 20 of the International Astronomical Union by the
              Minor Planet Center, Smithsonian Astrophysical Observatory,
                              Cambridge, MA 02138, U.S.A.
    
                 Prepared using the Tamkin Foundation Computer Network
    
                                  MPC@CFA.HARVARD.EDU
           URL https://www.minorplanetcenter.org/iau/mpc.html  ISSN 1523-6714
    
                                       2010 MG1
    
    Observations:
         K10M01G* C2010 06 19.16330 14 27 40.53 -15 27 32.4          20.3 V EM029G96
         K10M01G  C2010 06 19.17093 14 27 39.70 -15 27 03.3          20.4 V EM029G96
         K10M01G  C2010 06 19.17859 14 27 38.88 -15 26 33.7          20.8 V EM029G96
         K10M01G  C2010 06 19.18625 14 27 38.08 -15 26 04.6          21.1 V EM029G96
         K10M01G  C2010 06 19.20899 14 27 35.48 -15 24 38.6          20.5 R EM029H01
         K10M01G  C2010 06 19.21737 14 27 34.61 -15 24 06.4          20.3 R EM029H01
         K10M01G  C2010 06 19.22118 14 27 34.38 -15 23 50.3          20.2 V EM029G96
         K10M01G  C2010 06 19.22692 14 27 33.63 -15 23 29.5          20.6 R EM029H01
         K10M01G  C2010 06 19.22840 14 27 33.69 -15 23 22.9          20.9 V EM029G96
         K10M01G  C2010 06 19.23105 14 27 33.21 -15 23 13.7          20.2 R EM029H01
         K10M01G  C2010 06 19.23564 14 27 32.86 -15 22 55.2          21.0 V EM029G96
         K10M01G  C2010 06 19.24288 14 27 32.22 -15 22 27.1          20.4 V EM029G96
         K10M01G  C2010 06 20.16212 14 26 19.68 -14 22 22.6          21.4 V EM029G96
         K10M01G  C2010 06 20.16779 14 26 19.14 -14 21 58.8          21.2 V EM029G96
         K10M01G  C2010 06 20.17350 14 26 18.52 -14 21 36.2          21.2 V EM029G96
         K10M01G  C2010 06 20.17920 14 26 17.91 -14 21 12.6          20.6 V EM029G96
         K10M01G VC2010 06 20.18201214 26 16.33 -14 21 04.4          21.1 V EM029H21
         K10M01G VC2010 06 20.20681514 26 13.86 -14 19 24.1          21.4 V EM029H21
         K10M01G  C2010 06 20.20910 14 26 14.54 -14 19 12.5          20.0 R EM029H01
         K10M01G  C2010 06 20.21679 14 26 13.76 -14 18 40.7          20.3 R EM029H01
         K10M01G  C2010 06 20.22424 14 26 12.98 -14 18 10.5          20.6 R EM029H01
         K10M01G  C2010 06 20.23141 14 26 12.26 -14 17 41.2          21.0 R EM029H01
    
    Observer details:
    G96 Mt. Lemmon Survey.  Observer R. A. Kowalski.  Measurers J. D. Ahern,
        E. C. Beshore, A. Boattini, G. J. Garradd, A. R. Gibbs, A. D. Grauer,
        R. E. Hill, R. A. Kowalski, S. M. Larson, R. H. McNaught.  1.5-m reflector
        + CCD.
    H01 Magdalena Ridge Observatory, Socorro.  Observer W. H. Ryan.  2.4-m f/8.9
        reflector + CCD.
    H21 Astronomical Research Observatory, Westfield.  Observer R. Holmes.
        Measurer S. Foglia.
    
    Orbital elements:
    2010 MG1                                                 Earth MOID = 0.0356 AU
    Epoch 2010 July 23.0 TT = JDT 2455400.5                 MPC
    M 356.43334              (2000.0)            P               Q
    n   0.35227335     Peri.   49.84697     +0.67881428     +0.72547743
    a   1.9855593      Node   263.29371     -0.70368917     +0.59849376
    e   0.5100287      Incl.    6.56513     -0.20983977     +0.33983485
    P   2.80           H   23.3           G   0.15           U   9
    Residuals in seconds of arc
    100619 G96  0.5+  0.8-    100619 G96  0.3+  0.3-    100620 H21  0.5+  0.1+
    100619 G96  0.1+  0.7-    100619 H01  0.1+  0.5-    100620 H21  0.5+  0.9-
    100619 G96  0.1-  0.3-    100619 G96  0.8-  0.5-    100620 H01  0.4-  0.7-
    100619 G96  0.0   0.4-    100619 G96  0.7+  0.4-    100620 H01  0.1-  0.2-
    100619 H01  0.0   0.5-    100620 G96  0.5-  1.5-    100620 H01  0.3-  0.4-
    100619 H01  0.0   0.5-    100620 G96  0.4+  0.6-    100620 H01  0.1-  0.4-
    100619 G96  0.6-  0.1+    100620 G96  0.1+  1.0-
    100619 H01  0.0   0.4-    100620 G96  0.1-  0.4-
    
    Ephemeris:
    2010 MG1                 a,e,i = 1.99, 0.51, 7                   q = 0.9729
    Date    TT    R. A. (2000) Decl.     Delta      r     Elong.  Phase     V
    2010 06 13    14 36.30   -20 56.7    0.162    1.146   141.2    33.7    21.0
    2010 06 23    14 22.56   -10 53.5    0.118    1.089   125.6    49.4    20.7
    2010 07 03    14 08.33   +08 05.5    0.0822   1.041   105.1    70.5    20.4
    2010 07 13    13 40.60   +43 51.8    0.0640   1.004    77.2    99.3    20.9
    2010 07 23    10 34.86   +79 05.0    0.0775   0.981    61.2   114.8    22.2
    2010 08 02    04 31.25   +71 43.7    0.112    0.973    65.0   109.0    22.6
    2010 08 12    03 54.68   +61 55.5    0.153    0.981    73.3    98.1    22.7
    2010 08 22    03 48.33   +56 05.1    0.192    1.004    82.2    86.9    22.8
    2010 09 01    03 46.19   +52 10.2    0.228    1.040    91.4    76.0    22.8
    2010 09 11    03 41.54   +49 05.6    0.258    1.088   101.5    65.1    22.8
    2010 09 21    03 31.81   +46 09.1    0.285    1.144   112.7    54.0    22.8
    2010 10 01    03 16.92   +42 52.9    0.311    1.207   125.2    42.6    22.8
    2010 10 11    02 58.48   +39 01.1    0.341    1.275   138.8    31.0    22.8
    2010 10 21    02 39.82   +34 38.7    0.381    1.345   152.5    20.0    22.8
    2010 10 31    02 24.12   +30 11.5    0.436    1.417   163.7    11.3    23.0
    2010 11 10    02 13.14   +26 10.0    0.509    1.489   165.9     9.3    23.3
    
    Carl W. Hergenrother         (C) Copyright 2010 MPC           M.P.E.C. 2010-M29
    

    Read MPEC 2010-M28 Read MPEC 2010-M30


    MPEC number:

    Enter an MPEC number in one of the following forms:

    • 1997-B01 (the full form)
    • J97B01 (the packed version of the full form)
    • B01 (the abbreviated form)